Location: Boekend
(51.5500°N, 5.7000°E)
Time: 23:18:04
(UTC+00:00)

Daily predictions for brighter satellites

Satellite Brightness Start Highest point End
(mag) Time Altitude Azimuth Time Altitude Azimuth Time Altitude Azimuth
STARLINK-1130 (DARKSAT) 3.8 20:15:27 10° W 20:19:37 77° N 20:23:47 10° ENE
Cosmos 2056 Rocket 3.9 20:14:56 10° S 20:19:40 40° ESE 20:24:27 10° NE
Cosmos 2242 Rocket 3.8 20:15:17 10° SSW 20:19:41 77° W 20:24:07 10° N
STARLINK-1080 3.7 20:16:06 10° WNW 20:20:14 68° SSW 20:24:20 10° ESE
Okean 1 3.3 20:16:35 10° S 20:20:37 80° E 20:24:42 10° NNE
STARLINK-1083 3.8 20:18:19 10° WNW 20:22:28 75° N 20:26:37 10° E
ISS -3.7 20:20:14 10° W 20:23:37 89° N 20:27:00 10° E
STARLINK-1084 3.8 20:20:27 10° W 20:24:37 76° N 20:28:46 10° ENE
STARLINK-1090 3.8 20:21:05 10° WNW 20:25:12 64° SSW 20:29:18 10° ESE
Iridium 51 4.4 20:21:31 10° S 20:25:33 61° E 20:29:17 10° N
STARLINK-1125 3.8 20:23:18 10° WNW 20:27:27 76° N 20:31:37 10° E
Meteor 1-19 Rocket 4.3 20:22:49 10° S 20:28:21 65° E 20:34:05 10° NNE
STARLINK-1098 3.9 20:25:28 10° W 20:29:37 75° N 20:33:46 10° ENE
STARLINK-67 1.9 20:28:09 10° W 20:30:06 71° NNW 20:32:03 10° ENE
STARLINK-1089 3.8 20:26:04 10° WNW 20:30:10 61° SSW 20:34:15 10° SE
SL-8 R/B 4.0 20:25:46 10° WSW 20:30:23 49° SSE 20:35:02 10° E
STARLINK-1109 3.8 20:28:16 10° WNW 20:32:25 78° N 20:36:35 10° E
Cosmos 2278 Rocket 2.9 20:27:39 10° SSE 20:32:39 33° ESE 20:37:42 10° NE
CARTOSAT-1 4.2 20:28:34 10° SE 20:32:40 44° ENE 20:36:47 10° N
Cosmos 1356 3.9 20:29:28 10° NNW 20:32:53 59° W 20:36:17 10° S
STARLINK-1231 4.5 20:30:57 10° SSW 20:34:29 28° SE 20:38:02 10° E
STARLINK-1123 3.9 20:30:27 10° W 20:34:35 74° N 20:38:45 10° E
STARLINK-1107 3.9 20:31:03 10° WNW 20:35:07 58° SSW 20:39:11 10° SE
STARLINK-1091 3.7 20:33:15 10° WNW 20:37:24 79° N 20:41:34 10° E
Meteor 1-12 Rocket 4.5 20:31:52 10° N 20:37:29 60° ENE 20:43:04 10° SSE
Meteor 1-18 Rocket 4.3 20:32:19 10° S 20:37:54 88° ESE 20:43:36 10° NNE
Lacrosse 5 2.1 20:34:02 10° WNW 20:39:06 73° NNE 20:44:10 10° ESE
STARLINK-1232 4.4 20:35:49 10° SSW 20:39:25 29° SE 20:43:02 10° E
STARLINK-1097 3.9 20:35:26 10° W 20:39:35 73° N 20:43:44 10° E
Cosmos 1437 Rocket 4.4 20:37:03 10° SE 20:39:36 17° E 20:42:10 10° NE
STARLINK-1066 3.9 20:36:03 10° WNW 20:40:06 55° SSW 20:44:02 11° SE
NOSS 2-3 (E) 3.9 20:36:40 10° SSW 20:40:52 49° SE 20:45:52 10° NE
STARLINK-1072 3.7 20:38:15 10° WNW 20:42:25 81° NNE 20:46:34 10° E
Terra 2.6 20:38:35 10° SE 20:43:02 40° ENE 20:47:29 10° N
Cosmos 1844 Rocket 3.4 20:37:29 10° SW 20:43:06 61° NW 20:48:43 10° NNE
STARLINK-1208 4.3 20:40:41 10° SSW 20:44:21 31° SE 20:48:02 10° E
STARLINK-1099 3.9 20:40:24 10° W 20:44:33 72° N 20:48:42 10° E
STARLINK-1228 3.1 20:41:36 10° SW 20:44:53 58° SSE 20:48:11 10° ENE
STARLINK-1081 4.0 20:41:02 10° WNW 20:45:04 52° SSW 20:48:49 12° SE
STARLINK-1096 3.7 20:43:15 10° WNW 20:47:25 83° NNE 20:51:35 10° ESE
STARLINK-1234 2.9 20:45:27 10° SW 20:48:30 56° SSE 20:51:35 10° ENE
IGS 5A 3.6 20:44:41 10° S 20:48:50 77° WSW 20:53:02 10° NNW
STARLINK-1271 4.2 20:45:35 10° SSW 20:49:19 33° SE 20:53:04 10° E
STARLINK-1104 3.9 20:45:24 10° W 20:49:33 71° N 20:53:42 10° E
Cosmos 2142 Rocket 4.5 20:43:35 10° N 20:49:46 79° E 20:55:55 10° SSE
STARLINK-1212 3.1 20:46:53 10° SW 20:49:53 46° SSE 20:52:53 10° ENE
STARLINK-1070 4.0 20:46:00 10° WNW 20:50:00 49° SSW 20:53:35 13° SE
Cosmos 1300 Rocket 3.7 20:45:47 10° N 20:50:14 64° ENE 20:54:26 11° SSE
STARLINK-1209 2.9 20:47:09 10° WSW 20:50:15 60° SSE 20:53:22 10° ENE
STARLINK-1105 3.1 20:47:21 10° SW 20:50:21 47° SSE 20:53:21 10° ENE
Cosmos 1452 Rocket 4.4 20:46:15 10° SSE 20:50:47 30° E 20:55:19 10° NE
STARLINK-1247 3.1 20:48:15 10° SW 20:51:16 47° SSE 20:54:17 10° ENE
Cosmos 2084 Rocket 3.6 20:47:12 10° SW 20:51:30 79° NW 20:55:55 10° NE
STARLINK-1227 3.0 20:48:43 10° SW 20:51:42 48° SSE 20:54:43 10° ENE
Cosmos 407 Rocket 4.4 20:46:43 10° NW 20:51:48 46° WSW 20:56:52 10° S
Cosmos 1515 3.9 20:48:17 10° SSW 20:52:06 76° W 20:55:57 10° N
Crew Dragon -0.2 20:50:05 10° W 20:52:12 80° S 20:54:13 12° ESE
STARLINK-1079 3.7 20:48:12 10° WNW 20:52:23 85° NNE 20:56:32 10° ESE
STARLINK-1226 3.0 20:49:34 10° SW 20:52:34 48° SSE 20:55:36 10° ENE
Okean 3 3.6 20:48:42 10° S 20:52:56 59° E 20:57:11 10° NNE
STARLINK-1215 3.0 20:50:29 10° SW 20:53:31 49° SSE 20:56:33 10° ENE
STARLINK-1154 4.2 20:50:29 10° SSW 20:54:16 36° SE 20:58:04 10° E
STARLINK-1144 3.9 20:50:24 10° W 20:54:32 71° N 20:58:41 10° E
STARLINK-1069 4.1 20:50:59 10° WNW 20:54:57 46° SSW 20:58:21 13° SE
USA 245 3.5 20:51:35 10° S 20:55:10 50° WSW 20:58:05 10° NNW
STARLINK-1217 3.0 20:52:15 10° SW 20:55:16 50° SSE 20:58:19 10° ENE
STARLINK-1229 3.0 20:53:09 10° SW 20:56:12 51° SSE 20:59:14 10° ENE
STARLINK-1270 3.0 20:54:01 10° SW 20:57:03 51° SSE 21:00:06 10° ENE
STARLINK-1116 3.6 20:53:11 10° WNW 20:57:22 87° NNE 21:01:31 10° ESE
Cosmos 1420 Rocket 4.4 20:52:27 10° S 20:57:23 45° ESE 21:02:19 10° NE
STARLINK-1189 2.9 20:55:51 10° SW 20:58:53 53° SSE 21:01:57 10° ENE
STARLINK-1197 4.1 20:55:23 10° SW 20:59:13 38° SSE 21:03:04 10° ENE
STARLINK-1103 3.9 20:55:23 10° W 20:59:31 71° N 21:03:41 10° E
STARLINK-1188 2.9 20:56:43 10° SW 20:59:46 53° SSE 21:02:50 10° ENE
Cosmos 2221 Rocket 3.7 20:55:21 10° S 20:59:48 66° E 21:04:20 10° NNE
STARLINK-1085 4.2 20:55:59 10° WNW 20:59:56 43° SSW 21:03:10 14° SE
Okean 1-7 3.9 20:56:08 10° SSW 21:00:17 49° WNW 21:04:28 10° N
STARLINK-1235 2.8 20:57:22 10° WSW 21:00:26 63° SSE 21:03:31 10° ENE
COSMOS 2406 3.7 20:54:46 10° NW 21:00:27 58° WSW 21:05:59 10° S
NOSS 2-3 (D) 3.7 20:56:27 10° SSW 21:00:44 65° SE 21:05:55 10° NE
STARLINK-1187 2.8 20:57:49 10° WSW 21:00:51 59° SSE 21:03:54 10° ENE
STARLINK-1191 2.9 20:59:11 10° SW 21:02:13 55° SSE 21:05:17 10° ENE
Meteor 1-13 Rocket 4.4 20:57:19 10° S 21:02:44 54° E 21:08:16 10° NNE
STARLINK-1221 2.9 21:00:04 10° SW 21:03:06 56° SSE 21:06:09 10° ENE
STARLINK-1222 2.9 21:00:56 10° SW 21:03:59 56° SSE 21:07:03 10° ENE
STARLINK-1198 4.0 21:00:16 10° SW 21:04:09 40° SSE 21:08:02 10° ENE
Cosmos 371 Rocket 4.0 21:00:02 10° SSE 21:04:21 35° ESE 21:08:46 10° NE
STARLINK-1101 3.9 21:00:22 10° W 21:04:30 71° N 21:08:40 10° E
STARLINK-1086 4.3 21:00:59 10° WNW 21:04:54 41° SSW 21:07:57 15° SSE
STARLINK-1214 2.8 21:01:52 10° SW 21:04:54 57° SSE 21:07:58 10° ENE
Resurs 01 Rocket 3.7 21:02:20 10° SSW 21:05:57 24° W 21:09:36 10° NW
Meteor 2-4 Rocket 3.6 21:00:46 10° S 21:06:08 81° ESE 21:11:32 10° NNE
USA 215 3.4 20:59:48 10° ESE 21:06:21 77° NNE 21:12:55 10° WNW
Abrixas rocket 2.4 21:04:10 10° WSW 21:06:58 39° S 21:09:45 10° E
STARLINK-1094 3.6 21:03:10 10° WNW 21:07:19 87° SSW 21:11:30 10° ESE
SPOT 1/Viking Rocket 3.9 21:02:47 10° S 21:07:55 66° WSW 21:13:05 10° NNW
Cosmos 1674 Rocket 4.3 21:04:49 14° SSE 21:08:09 37° E 21:12:12 10° NNE
Sich 1 Rocket 4.4 21:04:29 10° NNW 21:08:56 50° W 21:13:21 10° SSW
STARLINK-1199 3.9 21:05:13 10° SW 21:09:08 43° SSE 21:13:04 10° ENE
STARLINK-1102 3.9 21:05:23 10° W 21:09:31 71° N 21:13:40 10° E
STARLINK-1095 4.4 21:05:59 10° WNW 21:09:50 38° SSW 21:12:43 16° SSE
USA 229 DEB 3.9 21:05:06 10° SW 21:11:42 75° NW 21:18:44 10° NE
USA 229 3.9 21:05:13 10° SW 21:11:49 75° NW 21:18:49 10° NE
Meteor 1-4 Rocket 3.1 21:08:44 10° SSW 21:12:08 56° WNW 21:15:34 10° N
STARLINK-1117 3.6 21:08:09 10° WNW 21:12:18 84° SSW 21:16:19 11° ESE
STARLINK-1210 3.9 21:10:07 10° SW 21:14:04 45° SSE 21:18:03 10° ENE
STARLINK-1111 3.9 21:10:21 10° W 21:14:30 71° N 21:18:39 10° E
STARLINK-1077 4.5 21:10:58 10° W 21:14:47 36° SW 21:17:29 17° SSE
Cosmos 1378 Rocket 4.4 21:12:35 15° SSE 21:15:38 34° E 21:19:38 10° NNE
SPOT 5 3.1 21:12:28 13° SSE 21:17:08 82° WSW 21:22:29 10° NNW
STARLINK-1078 3.6 21:13:07 10° WNW 21:17:16 82° SSW 21:21:06 12° ESE
Nadezhda 4 Rocket 4.4 21:13:37 14° SSE 21:18:38 44° E 21:24:24 10° NNE
STARLINK-1219 3.8 21:15:03 10° SW 21:19:02 48° SSE 21:23:02 10° ENE
Cosmos 1624 Rocket 4.4 21:13:45 10° SSW 21:19:03 71° WNW 21:24:26 10° NNE
STARLINK-1073 3.9 21:15:21 10° W 21:19:30 71° N 21:23:39 10° E
NOSS 3-1 (C) 4.0 21:14:05 10° WSW 21:19:45 64° NW 21:26:29 10° NE
OPS 8737 4.4 21:16:22 10° SW 21:19:47 73° NW 21:22:41 10° NE
Cosmos 1741 Rocket 4.1 21:15:11 10° NNW 21:20:26 72° ENE 21:24:31 17° SE
NOSS 3-1 (A) 3.5 21:15:01 10° SW 21:20:40 85° NW 21:27:23 10° NE
ATLAS CENTAUR R/B 2.8 21:19:30 10° WNW 21:21:16 23° NNW 21:22:51 10° NE
STARLINK-1108 3.6 21:18:06 10° WNW 21:22:15 78° SSW 21:25:53 13° ESE
Cosmos 2279 Rocket 4.2 21:16:22 10° NNW 21:22:38 75° W 21:28:35 11° S
ATLAS 3B R/B 4.4 21:17:40 10° NW 21:23:29 30° N 21:29:26 10° ENE
STARLINK-1211 3.7 21:19:57 10° SW 21:23:59 51° SSE 21:28:01 10° ENE
STARLINK-1121 3.9 21:20:19 10° W 21:24:28 72° N 21:28:37 10° E
Okean 2 Rocket 3.7 21:21:47 10° NNW 21:26:07 52° W 21:30:13 11° S
STARLINK-1071 3.6 21:23:05 10° WNW 21:27:14 75° SSW 21:30:40 15° ESE
CENTAUR R/B 4.1 21:20:46 10° NW 21:27:51 43° NNE 21:35:52 10° E
STARLINK-1245 3.7 21:24:55 10° SW 21:28:58 54° SSE 21:33:01 10° ENE
STARLINK-1106 3.8 21:25:18 10° W 21:29:28 73° N 21:33:37 10° E
STARLINK-1110 3.6 21:27:16 10° WNW 21:31:25 73° SSW 21:34:41 16° ESE
BREEZE-M DEB (TANK) 4.3 21:14:56 10° WNW 21:31:29 65° SSW 21:35:38 16° SE
NOSS 2-3 (C) 4.0 21:27:07 10° SW 21:31:32 78° NW 21:36:59 10° NE
STARLINK-1233 3.6 21:29:51 10° SW 21:33:55 57° SSE 21:37:59 10° ENE
STARLINK-1112 3.8 21:30:18 10° W 21:34:28 73° N 21:38:37 10° E
Cosmos 1850 Rocket 4.1 21:29:09 10° NNW 21:34:32 88° WSW 21:38:31 19° SSE
ERBS 2.9 21:32:41 12° SSW 21:35:17 32° SE 21:38:17 10° ENE
STARLINK-1124 3.6 21:33:03 10° WNW 21:37:11 69° SSW 21:40:13 18° ESE
STARLINK-1204 3.6 21:34:49 10° SW 21:38:54 60° SSE 21:43:00 10° ENE
Cosmos 2151 Rocket 4.2 21:34:42 10° NNW 21:39:08 55° W 21:42:53 14° S
STARLINK-1128 3.8 21:35:18 10° W 21:39:27 74° N 21:43:36 10° E
Cosmos 2082 Rocket 2.4 21:34:22 10° NNW 21:40:05 69° WSW 21:44:18 18° SSE
STARLINK-1122 3.6 21:38:02 10° WNW 21:42:09 65° SSW 21:45:01 19° SE
STARLINK-1238 3.5 21:39:44 10° SW 21:43:50 63° SSE 21:47:57 10° ENE
Okean 1 Rocket 3.1 21:39:21 10° N 21:43:52 83° E 21:46:51 21° SSE
STARLINK-1113 3.8 21:40:16 10° WNW 21:44:26 76° N 21:48:35 10° E
ERS-1 Rocket 3.9 21:40:28 11° SSW 21:44:59 43° W 21:49:47 10° NNW
SeaSat 1 3.0 21:40:30 10° NE 21:45:10 40° ESE 21:48:18 19° S
STARLINK-1126 3.7 21:42:57 10° WNW 21:47:04 62° SSW 21:49:44 21° SE
Cosmos 1833 Rocket 3.6 21:43:25 10° NW 21:48:37 40° WSW 21:52:51 15° S
STARLINK-1201 3.5 21:44:43 10° WSW 21:48:49 67° SSE 21:52:57 10° ENE
STARLINK-1119 3.7 21:45:16 10° WNW 21:49:25 77° N 21:53:34 10° E
Cosmos 1805 3.4 21:47:23 10° N 21:51:18 60° ENE 21:53:26 25° SSE
SL-4 R/B 2.2 21:48:17 10° NW 21:51:19 38° WSW 21:52:33 25° S
Meteor 1-15 Rocket 4.4 21:45:39 10° NNW 21:51:35 78° W 21:56:04 18° S
Aureole 2 Rocket 3.2 21:51:13 26° SE 21:51:47 27° ESE 21:54:29 10° NE
STARLINK-1082 3.7 21:48:00 10° WNW 21:52:06 59° SSW 21:54:35 22° SE
EO 1 Del DPAF 4.2 21:48:46 10° NNE 21:52:11 31° E 21:53:37 23° SE
Cosmos 304 Rocket 4.1 21:50:10 20° S 21:53:06 46° ESE 21:57:41 10° NE
STARLINK-1206 3.5 21:49:40 10° WSW 21:53:47 70° SSE 21:57:56 10° ENE
NOSS 3-2 (A) 4.3 21:47:16 10° NW 21:54:24 63° NE 22:02:33 10° ESE
STARLINK-1114 3.7 21:50:16 10° WNW 21:54:25 79° N 21:58:35 10° E
Okean 2 4.3 21:53:51 22° SE 21:55:42 33° E 21:59:27 10° NNE
STARLINK-1216 4.4 21:54:48 22° S 21:56:24 29° SE 21:59:59 10° E
Cosmos 1092 Rocket 4.2 21:52:19 19° SSE 21:56:32 53° E 22:02:30 10° NNE
Cosmos 1455 Rocket 4.0 21:52:35 10° N 21:56:40 36° ENE 21:59:07 20° SE
Cosmos 332 Rocket 3.8 21:52:44 14° SSW 21:56:57 73° ESE 22:01:52 10° NNE
STARLINK-1100 3.7 21:52:59 10° WNW 21:57:03 56° SSW 21:59:21 24° SE
STARLINK-1205 3.5 21:54:38 10° WSW 21:58:46 73° SSE 22:02:55 10° ENE
Cosmos 2369 Rocket 3.8 21:57:13 15° ESE 21:59:08 17° E 22:02:40 10° ENE
STARLINK-1130 (DARKSAT) 3.7 21:55:13 10° WNW 21:59:23 80° N 22:03:32 10° E
ISS -3.3 21:57:04 10° W 22:00:18 43° SSW 22:01:21 31° SSE
STARLINK-1237 4.3 21:59:34 22° S 22:01:20 31° SE 22:05:01 10° E
USA 238 DEB 4.2 21:54:41 10° NW 22:01:47 66° NE 22:08:58 11° ESE
USA 238 4.2 21:54:46 10° NW 22:01:52 65° NE 22:09:06 11° ESE
STARLINK-1083 3.8 21:57:58 10° WNW 22:02:00 53° SSW 22:04:07 25° SE
STARLINK-67 2.3 22:00:17 10° WNW 22:02:12 55° N 22:02:31 46° NE
Cosmos 1066 Rocket 4.1 21:58:19 17° S 22:02:38 84° E 22:08:02 10° NNE
STARLINK-1218 3.5 21:59:35 10° WSW 22:03:43 77° SSE 22:07:53 10° ENE
Cosmos 1378 3.2 22:02:29 28° SSE 22:04:16 58° E 22:07:57 10° NNE
STARLINK-1084 3.6 22:00:12 10° WNW 22:04:23 82° NNE 22:08:32 10° E
STARLINK-1202 4.3 22:04:21 21° S 22:06:18 33° SE 22:10:02 10° E
Cosmos 1842 4.3 22:05:25 24° SE 22:06:53 31° E 22:10:23 10° NNE
STARLINK-1125 3.9 22:02:57 10° WNW 22:06:59 50° SSW 22:08:55 27° SSE
STARLINK-1254 3.5 22:04:34 10° WSW 22:08:42 80° SSE 22:12:52 10° ENE
STARLINK-1098 3.6 22:05:12 10° WNW 22:09:22 84° N 22:13:31 10° ESE
Cosmos 1943 Rocket 3.3 22:07:36 21° SE 22:09:48 27° ESE 22:14:23 10° NE
Cosmos 1331 Rocket 4.3 22:07:07 23° SSE 22:10:01 47° ESE 22:14:59 10° NE
STARLINK-1109 3.9 22:07:56 10° WNW 22:11:56 47° SSW 22:13:41 28° SSE
SL-8 R/B 3.7 22:07:53 10° W 22:12:38 60° S 22:17:24 10° ESE
STARLINK-1231 3.5 22:09:33 10° WSW 22:13:43 83° SSE 22:17:52 10° ENE
STARLINK-1123 3.6 22:10:11 10° WNW 22:14:21 87° NNE 22:18:17 11° ESE
Cosmos 1437 Rocket 3.6 22:12:21 13° SW 22:15:31 45° WNW 22:19:13 10° N
STARLINK-1246 4.1 22:13:54 20° SSW 22:16:11 37° SE 22:20:01 10° E
Cosmos 2278 Rocket 3.0 22:11:00 10° SW 22:16:33 53° NW 22:22:08 10° NNE
STARLINK-1091 4.0 22:12:55 10° WNW 22:16:53 44° SSW 22:18:27 30° SSE
STARLINK-1232 3.5 22:14:32 10° WSW 22:18:41 86° SSE 22:22:51 10° ENE
STARLINK-1097 3.6 22:15:10 10° WNW 22:19:19 89° NNE 22:23:04 13° ESE
Terra 3.2 22:17:24 14° SSW 22:20:52 31° W 22:25:07 10° NNW
STARLINK-1224 4.0 22:18:40 19° SSW 22:21:09 39° SSE 22:25:02 10° ENE
STARLINK-1228 3.4 22:18:10 10° W 22:21:30 67° N 22:24:51 10° E
STARLINK-1072 4.1 22:17:55 10° WNW 22:21:51 42° SSW 22:23:14 31° SSE
ALOS 2 3.3 22:19:22 22° SE 22:21:51 44° ENE 22:26:02 10° N
Lacrosse 5 2.6 22:17:14 10° WNW 22:21:52 36° SW 22:24:01 25° S
STARLINK-1208 3.5 22:19:30 10° WSW 22:23:39 88° SSE 22:27:48 10° ENE
STARLINK-1099 3.5 22:20:07 10° WNW 22:24:17 88° SSW 22:27:50 14° ESE
STARLINK-1234 3.2 22:21:13 10° W 22:24:19 66° N 22:27:26 10° E
Thor Agena Rocket 3.6 22:19:22 10° NNE 22:24:43 73° ESE 22:28:06 23° S
Cosmos 546 4.5 22:21:24 10° W 22:25:16 77° S 22:29:10 10° E
STARLINK-1212 3.1 22:22:33 10° W 22:25:39 69° N 22:28:46 10° ENE
Crew Dragon 2.7 22:23:54 10° W 22:24:19 13° WSW 22:24:19 13° WSW
STARLINK-1225 3.9 22:23:26 18° SSW 22:26:07 42° SSE 22:30:03 10° ENE
STARLINK-1105 3.1 22:23:02 10° W 22:26:07 68° N 22:29:13 10° ENE
Spot 4 3.8 22:23:24 26° SSE 22:26:11 89° ENE 22:31:05 10° NNW
STARLINK-1209 3.3 22:23:08 10° W 22:26:16 65° N 22:29:24 10° E
STARLINK-1096 4.2 22:22:57 10° WNW 22:26:50 39° SSW 22:28:02 31° S
STARLINK-1247 3.2 22:23:56 10° W 22:27:03 68° N 22:30:10 10° ENE
STARLINK-1227 3.1 22:24:24 10° W 22:27:29 68° N 22:30:36 10° ENE
STARLINK-1226 3.2 22:25:15 10° W 22:28:21 68° N 22:31:29 10° ENE
STARLINK-1271 3.6 22:24:30 10° WSW 22:28:39 89° NNW 22:32:49 10° ENE
STARLINK-1104 3.5 22:25:06 10° WNW 22:29:16 86° SSW 22:32:37 15° ESE
STARLINK-1215 3.2 22:26:11 10° W 22:29:18 68° N 22:32:25 10° ENE
STARLINK-1230 3.9 22:28:13 17° SW 22:31:03 44° SSE 22:35:01 10° ENE
STARLINK-1217 3.2 22:27:58 10° W 22:31:04 67° N 22:34:11 10° ENE
BREEZE-M DEB (TANK) 3.5 22:19:03 10° WSW 22:31:19 56° SSE 22:34:53 10° E
STARLINK-1079 4.3 22:27:55 10° W 22:31:45 37° SW 22:32:48 31° S
SL-4 R/B 1.0 22:31:54 50° ENE 22:31:54 50° ENE 22:34:00 10° N
STARLINK-1229 3.2 22:28:53 10° W 22:32:00 67° N 22:35:07 10° ENE
Cosmos 1544 Rocket 3.8 22:28:14 10° N 22:32:33 58° ENE 22:34:36 28° SE
NOSS 8 (F) 4.0 22:31:10 30° SW 22:32:33 78° SE 22:35:38 10° NE
Cosmos 1452 Rocket 4.3 22:27:33 10° SW 22:32:41 50° WNW 22:37:51 10° NNE
STARLINK-1270 3.2 22:29:44 10° W 22:32:51 67° N 22:35:59 10° ENE
STARLINK-1154 3.6 22:29:29 10° WSW 22:33:38 87° NNW 22:37:48 10° ENE
STARLINK-1144 3.5 22:30:06 10° WNW 22:34:15 83° SSW 22:37:24 17° ESE
EXPRESS MD2 4.5 22:30:10 10° SW 22:34:21 50° SSE 22:42:56 10° ENE
Cosmos 1726 4.0 22:31:40 10° NNE 22:34:35 21° ENE 22:36:25 15° ESE
STARLINK-1189 3.2 22:31:35 10° W 22:34:43 66° N 22:37:49 10° ENE
STARLINK-1188 3.2 22:32:28 10° W 22:35:35 66° N 22:38:43 10° ENE
STARLINK-1243 3.8 22:32:59 16° SW 22:36:01 47° SSE 22:40:00 10° ENE
STARLINK-1235 3.2 22:33:13 10° W 22:36:17 64° N 22:39:22 10° E
Cosmos 1766 3.8 22:32:44 10° NNW 22:36:36 51° W 22:38:27 27° SSW
STARLINK-1187 3.2 22:33:37 10° W 22:36:41 65° N 22:39:46 10° E
STARLINK-1116 4.4 22:32:55 10° W 22:36:43 35° SW 22:37:36 31° S
STARLINK-1191 3.2 22:34:58 10° W 22:38:03 66° N 22:41:09 10° E
SL-27 R/B 3.0 22:34:33 10° NNW 22:38:07 52° ENE 22:39:37 29° SE
STARLINK-1197 3.6 22:34:27 10° WSW 22:38:37 84° NNW 22:42:46 10° ENE
STARLINK-1221 3.2 22:35:50 10° W 22:38:56 65° N 22:42:01 10° E
STARLINK-1103 3.5 22:35:05 10° WNW 22:39:14 80° SSW 22:42:11 19° ESE
STARLINK-1222 3.2 22:36:43 10° W 22:39:49 65° N 22:42:55 10° E
STARLINK-1214 3.2 22:37:39 10° W 22:40:44 65° N 22:43:50 10° E
STARLINK-1236 3.7 22:37:45 15° SW 22:40:59 50° SSE 22:45:00 10° ENE
Cosmos 1553 Rocket 4.1 22:35:17 10° N 22:41:39 71° ENE 22:45:31 25° SSE
Cosmos 1953 3.7 22:38:13 10° N 22:41:48 30° ENE 22:43:45 20° ESE
Abrixas rocket 3.1 22:39:25 10° W 22:41:14 29° SW 22:41:14 29° SW
Cosmos 1340 Rocket 4.5 22:39:54 10° N 22:43:18 25° ENE 22:45:33 16° ESE
STARLINK-1198 3.6 22:39:25 10° W 22:43:34 82° N 22:47:44 10° ENE
STARLINK-1101 3.5 22:40:03 10° WNW 22:44:12 76° SSW 22:46:56 21° ESE
Cosmos 1461 2.9 22:43:04 27° SSW 22:45:17 68° SE 22:49:39 10° NE
STARLINK-1094 4.5 22:42:57 10° W 22:46:37 31° SW 22:47:10 29° SSW
Cosmos 1271 Rocket 3.7 22:46:32 28° SE 22:47:38 34° E 22:51:12 10° NNE
STARLINK-1199 3.7 22:44:26 10° W 22:48:35 80° N 22:52:45 10° ENE
STARLINK-1102 3.5 22:45:03 10° WNW 22:49:12 73° SSW 22:51:45 22° ESE
USA 215 3.5 22:45:48 24° SSE 22:49:39 49° SW 22:55:59 10° WNW
Aureole 3 Rocket 3.8 22:44:55 10° N 22:49:55 86° E 22:54:05 25° S
Cosmos 2026 Rocket 4.0 22:45:53 23° S 22:50:02 88° W 22:56:26 10° N
Cosmos 1758 3.5 22:46:23 10° N 22:50:24 65° ENE 22:52:04 33° SSE
STARLINK-1269 3.6 22:47:16 13° SW 22:50:53 56° SSE 22:54:57 10° ENE
STARLINK-1210 3.7 22:49:24 10° W 22:53:33 79° N 22:57:43 10° ENE
STARLINK-1111 3.5 22:50:02 10° WNW 22:54:09 70° SSW 22:56:31 24° SE
Cosmos 1707 3.5 22:53:56 30° SE 22:55:09 38° E 22:58:48 10° NNE
STARLINK-1200 3.6 22:52:04 12° SW 22:55:52 59° SSE 22:59:58 10° ENE
Cosmos 1733 4.1 22:52:18 10° NNW 22:55:54 39° W 22:57:26 27° SW
Cosmos 1900 4.4 22:50:55 10° NW 22:55:56 72° SW 22:58:31 29° SSE
NOSS 2-2 (D) 3.3 22:57:13 39° S 22:58:17 56° SE 23:02:19 10° NE
STARLINK-1219 3.7 22:54:23 10° W 22:58:33 77° N 23:02:42 10° ENE
STARLINK-1073 3.5 22:55:01 10° WNW 22:59:08 67° SSW 23:01:19 26° SE
NOSS 3-2 (C) 4.1 22:52:05 10° NW 22:59:26 84° NE 23:07:07 13° SE
STARLINK-1192 3.5 22:56:50 11° SW 23:00:51 62° SSE 23:04:57 10° ENE
NOSS 8 (H) 4.0 23:00:43 39° SW 23:01:42 89° WNW 23:04:50 10° NE
Cosmos 1975 Rocket 3.5 23:00:54 25° SSW 23:03:23 59° WNW 23:07:48 10° N
STARLINK-1211 3.8 22:59:21 10° W 23:03:31 76° N 23:07:40 10° ENE
STARLINK-1121 3.6 22:59:58 10° WNW 23:04:05 63° SSW 23:06:04 29° SE
STARLINK-1244 3.5 23:01:41 10° WSW 23:05:48 66° SSE 23:09:55 10° ENE
STARLINK-1245 3.8 23:04:22 10° W 23:08:31 74° N 23:12:40 10° E
STARLINK-1106 3.6 23:04:57 10° WNW 23:09:03 60° SSW 23:10:51 31° SE
STARLINK-1138 3.5 23:06:39 10° WSW 23:10:46 69° SSE 23:14:54 10° ENE
Meteor 2-10 4.1 23:06:08 10° N 23:11:15 70° ENE 23:13:54 28° SSE
ERBS 3.0 23:08:12 10° WSW 23:11:28 54° NNW 23:14:46 10° ENE
Cosmos 2297 4.1 23:07:19 12° SW 23:12:35 61° NW 23:18:17 10° NNE
Aureole 3 4.1 23:08:58 10° N 23:12:37 36° ENE 23:13:54 26° ESE
Cosmos 1242 Rocket 2.5 23:11:36 42° S 23:12:46 89° E 23:16:28 10° NNE
STARLINK-1203 3.5 23:09:00 10° WSW 23:13:11 71° SSE 23:17:23 10° ENE
STARLINK-1233 3.8 23:09:20 10° W 23:13:29 73° N 23:17:39 10° E
STARLINK-1112 3.6 23:09:58 10° WNW 23:14:03 57° SSW 23:15:39 33° SE
ATLAS 3B R/B 3.3 23:08:54 10° NW 23:15:32 56° NE 23:22:21 10° ESE
STARLINK-1143 3.5 23:11:37 10° WSW 23:15:44 72° SSE 23:19:53 10° ENE
NOSS 2-2 (E) 3.2 23:15:11 26° SW 23:17:13 85° NW 23:21:34 10° NE
STARLINK-1204 3.8 23:14:21 10° W 23:18:30 73° N 23:22:39 10° E
STARLINK-1128 3.7 23:14:57 10° WNW 23:19:01 54° SSW 23:20:26 35° SSE
Cosmos 1470 3.1 23:15:30 10° NNW 23:19:19 54° W 23:20:37 35° SSW
CENTAUR R/B 3.2 23:11:36 10° NW 23:19:30 90° S 23:27:41 12° SE
Cosmos 2266 Rocket 4.3 23:16:09 26° SSE 23:19:33 55° E 23:25:27 10° NNE
Cosmos 1674 4.3 23:18:32 19° ESE 23:19:42 22° E 23:22:40 10° NE
STARLINK-1241 3.5 23:16:34 10° WSW 23:20:43 75° SSE 23:24:51 10° ENE
ATLAS CENTAUR R/B 3.7 23:20:47 11° ESE 23:20:58 11° ESE 23:22:15 10° E
Cosmos 1503 Rocket 4.1 23:16:24 10° NNW 23:21:43 78° ENE 23:24:52 25° SSE
SeaSat 1 3.6 23:18:04 10° NNE 23:22:43 42° NW 23:27:20 10° WSW
Cosmos 2082 Rocket 4.4 23:20:38 10° WNW 23:23:07 13° W 23:25:35 10° WSW
STARLINK-1238 3.8 23:19:18 10° W 23:23:27 72° N 23:27:36 10° E
STARLINK-1113 3.7 23:19:56 10° WNW 23:23:57 51° SSW 23:25:11 37° SSE
Aureole 2 Rocket 4.3 23:23:15 12° WSW 23:25:27 23° NW 23:27:58 10° N
STARLINK-1239 3.5 23:21:32 10° WSW 23:25:41 79° SSE 23:29:50 10° ENE
STARLINK-1201 3.8 23:24:19 10° W 23:28:27 71° N 23:32:37 10° E
STARLINK-1119 3.8 23:24:55 10° WNW 23:28:55 48° SSW 23:29:59 38° SSE
BREEZE-M DEB 3.9 23:26:02 10° WSW 23:29:42 70° SSE 23:43:01 10° E
STARLINK-1240 3.5 23:26:31 10° WSW 23:30:40 82° SSE 23:34:49 10° ENE
BREEZE-M DEB (TANK) 3.0 23:27:32 10° W 23:30:57 55° SSW 23:35:40 10° ESE
Cosmos 1867 3.8 23:25:48 10° NW 23:31:17 70° NE 23:36:08 13° SE
STARLINK-1206 3.9 23:29:18 10° W 23:33:27 71° N 23:37:36 10° E
Cosmos 883 Rocket 4.5 23:27:15 10° N 23:33:27 78° E 23:37:08 26° SSE
STARLINK-1114 3.9 23:29:55 10° WNW 23:33:54 45° SSW 23:34:46 39° S
Cosmos 1455 Rocket 4.5 23:30:41 10° NNW 23:34:23 27° W 23:36:14 20° SW
Helios 1A 3.1 23:33:57 36° S 23:35:31 62° WSW 23:39:41 10° NNW
Cosmos 968 Rocket 3.5 23:30:29 10° NNW 23:35:37 64° WSW 23:38:01 31° S
STARLINK-1216 3.5 23:31:29 10° WSW 23:35:38 85° SSE 23:39:48 10° ENE
Cosmos 1354 Rocket 4.0 23:31:18 10° NNW 23:36:38 89° ENE 23:39:37 27° SSE
Meteor 2-19 Rocket 4.5 23:34:37 27° S 23:38:05 73° E 23:44:14 10° NNE
Cosmos 1908 3.9 23:34:41 10° N 23:38:25 47° ENE 23:40:02 28° SE
STARLINK-1205 3.9 23:34:17 10° W 23:38:26 71° N 23:42:35 10° E
STARLINK-1130 (DARKSAT) 4.0 23:34:54 10° WNW 23:38:50 43° SSW 23:39:31 39° S
NOSS 2-2 (C) 3.5 23:37:50 22° WSW 23:40:02 68° NW 23:44:19 10° NE
ATLAS 2AS CENTAUR R/B 3.5 23:35:53 25° S 23:40:18 47° ESE 23:47:47 10° NE
STARLINK-1237 3.5 23:36:28 10° WSW 23:40:38 87° SSE 23:44:48 10° ENE
Cosmos 2369 Rocket 2.2 23:38:59 26° SSW 23:42:22 87° ESE 23:48:04 10° NNE
STARLINK-1218 3.9 23:39:16 10° W 23:43:25 71° N 23:47:34 10° E
STARLINK-1084 4.0 23:39:53 10° WNW 23:43:47 40° SSW 23:44:19 38° SSW
CZ-2D R/B 4.4 23:43:02 10° ENE 23:45:03 12° E 23:47:02 10° ESE
NOSS 3-2 (A) 4.4 23:38:15 10° NW 23:45:23 49° WSW 23:50:12 24° S
STARLINK-1202 3.5 23:41:28 10° WSW 23:45:37 90° NE 23:49:47 10° ENE
Cosmos 1726 Rocket 4.2 23:43:09 10° N 23:47:22 48° ENE 23:49:41 24° SE
Cosmos 1025 Rocket 3.3 23:45:35 30° SW 23:47:29 58° WNW 23:51:45 10° N
Cosmos 2315 Rocket 4.0 23:42:08 10° N 23:48:23 81° E 23:52:12 25° SSE
STARLINK-1254 3.9 23:44:16 10° W 23:48:25 71° N 23:52:34 10° E
STARLINK-1098 4.1 23:44:55 10° WNW 23:48:46 38° SSW 23:49:07 37° SSW
Helios 1B rocket 3.0 23:47:17 10° NNE 23:51:19 48° E 23:52:51 31° SSE
USA 238 DEB 4.3 23:45:54 10° NW 23:52:36 43° WSW 23:56:22 25° S
USA 238 4.3 23:45:59 10° NW 23:52:42 43° WSW 23:56:30 25° S
Cosmos 1943 Rocket 2.5 23:49:05 18° SW 23:53:09 63° NW 23:58:43 10° NNE
STARLINK-1231 3.9 23:49:16 10° W 23:53:26 71° N 23:57:34 10° E
STARLINK-1123 4.2 23:49:54 10° W 23:53:42 35° SW 23:53:53 35° SSW
SL-8 R/B 4.2 23:50:22 10° W 23:54:47 36° SSW 23:55:50 32° S
Resurs 1-4 Rocket 4.3 23:52:13 10° NE 23:55:15 15° E 23:58:17 10° ESE
STARLINK-1246 3.6 23:51:24 10° WSW 23:55:34 85° NNW 23:59:44 10° ENE
